DW3225 Weather Reports


Display with metric or nautical units.
time (UTC)temp
F
wind
direction
speed
MPH
gust
MPH
rain 1hr
in
rain 24hr
in
rain mn
in
humidity
%
barometer
mb
20260510230505 68 75 1.0 3.0 0.00 0.00 0.00 32 1020.0
20260510230006 68 75 1.0 6.0 0.00 0.00 0.00 31 1020.1
20260510225005 68 76 2.0 3.0 0.00 0.00 0.00 32 1020.1
20260510224005 68 98 2.0 7.0 0.00 0.00 0.00 30 1020.1
20260510223505 69 69 1.0 7.0 0.00 0.00 0.00 29 1020.1
20260510221504 69 72 2.0 10.0 0.00 0.00 0.00 29 1020.1
20260510221005 69 58 2.0 10.0 0.00 0.00 0.00 28 1020.0
20260510220505 69 55 3.0 10.0 0.00 0.00 0.00 29 1019.9
20260510215505 69 85 1.0 7.0 0.00 0.00 0.00 30 1019.9
20260510215005 69 57 2.0 12.0 0.00 0.00 0.00 32 1019.8
20260510214505 68 57 1.0 12.0 0.00 0.00 0.00 32 1019.7
20260510213505 68 131 1.0 9.0 0.00 0.00 0.00 33 1019.7
20260510213005 69 83 3.0 10.0 0.00 0.00 0.00 30 1019.9
20260510212005 69 69 2.0 9.0 0.00 0.00 0.00 31 1019.8
20260510211505 69 5 2.0 9.0 0.00 0.00 0.00 32 1019.8
20260510211005 69 33 2.0 9.0 0.00 0.00 0.00 31 1019.8
20260510205505 66 74 2.0 7.0 0.00 0.00 0.00 32 1019.8
20260510205005 66 107 2.0 7.0 0.00 0.00 0.00 32 1020.0
20260510204505 66 59 2.0 5.0 0.00 0.00 0.00 32 1020.1
20260510204005 66 51 1.0 5.0 0.00 0.00 0.00 33 1020.1
20260510203505 66 77 2.0 9.0 0.00 0.00 0.00 32 1019.9
20260510202505 67 92 1.0 5.0 0.00 0.00 0.00 31 1020.2
20260510202006 66 84 2.0 6.0 0.00 0.00 0.00 32 1020.2
20260510201505 65 69 2.0 7.0 0.00 0.00 0.00 32 1020.2
20260510201005 65 130 3.0 7.0 0.00 0.00 0.00 31 1020.2
20260510200505 66 66 3.0 7.0 0.00 0.00 0.00 31 1020.2
20260510200005 65 56 3.0 7.0 0.00 0.00 0.00 32 1020.2
20260510195505 66 110 2.0 9.0 0.00 0.00 0.00 32 1020.3
20260510195005 66 98 3.0 9.0 0.00 0.00 0.00 31 1020.3
20260510194505 67 76 1.0 5.0 0.00 0.00 0.00 33 1020.5
20260510194004 66 73 1.0 5.0 0.00 0.00 0.00 33 1020.5
20260510193005 66 333 2.0 6.0 0.00 0.00 0.00 34 1020.5
20260510192505 66 47 1.0 6.0 0.00 0.00 0.00 34 1020.4
20260510192005 66 101 0.0 6.0 0.00 0.00 0.00 33 1020.5
20260510191505 66 103 1.0 6.0 0.00 0.00 0.00 34 1020.6
20260510191005 66 150 2.0 6.0 0.00 0.00 0.00 32 1020.7
20260510190506 65 96 1.0 7.0 0.00 0.00 0.00 34 1020.6
20260510185505 66 65 2.0 7.0 0.00 0.00 0.00 34 1020.3
20260510184505 66 86 1.0 10.0 0.00 0.00 0.00 34 1020.3
20260510184005 65 91 2.0 10.0 0.00 0.00 0.00 33 1020.2
20260510183506 65 74 2.0 6.0 0.00 0.00 0.00 31 1020.2
20260510182505 65 76 2.0 6.0 0.00 0.00 0.00 32 1020.3
20260510182005 65 68 4.0 7.0 0.00 0.00 0.00 32 1020.3
20260510181504 65 86 2.0 7.0 0.00 0.00 0.00 32 1020.4
20260510181005 65 341 3.0 7.0 0.00 0.00 0.00 31 1020.4
20260510180505 65 24 3.0 6.0 0.00 0.00 0.00 31 1020.7
20260510180005 65 19 1.0 10.0 0.00 0.00 0.00 33 1020.8
20260510175505 65 85 3.0 10.0 0.00 0.00 0.00 30 1020.8
20260510174505 65 98 1.0 6.0 0.00 0.00 0.00 32 1020.5
20260510174005 65 63 3.0 7.0 0.00 0.00 0.00 32 1020.6
20260510173505 65 154 1.0 7.0 0.00 0.00 0.00 33 1020.6
20260510173005 65 92 1.0 7.0 0.00 0.00 0.00 32 1020.5
20260510172505 65 340 3.0 7.0 0.00 0.00 0.00 32 1020.4
20260510172005 64 355 2.0 10.0 0.00 0.00 0.00 31 1020.5
20260510171504 64 123 4.0 10.0 0.00 0.00 0.00 32 1020.6
20260510170505 64 61 2.0 10.0 0.00 0.00 0.00 35 1020.5
20260510170005 63 67 2.0 7.0 0.00 0.00 0.00 33 1020.5
20260510165005 63 88 1.0 6.0 0.00 0.00 0.00 35 1020.4
20260510163504 63 49 2.0 10.0 0.00 0.00 0.00 35 1020.0
20260510163004 63 55 2.0 10.0 0.00 0.00 0.00 36 1019.9
20260510162504 63 71 2.0 10.0 0.00 0.00 0.00 37 1019.9
20260510162005 63 61 4.0 10.0 0.00 0.00 0.00 36 1020.1
20260510161505 63 63 2.0 10.0 0.00 0.00 0.00 37 1020.0
20260510161005 63 72 2.0 8.0 0.00 0.00 0.00 38 1019.9
20260510160505 62 123 2.0 8.0 0.00 0.00 0.00 37 1020.1
20260510160005 63 70 3.0 9.0 0.00 0.00 0.00 36 1020.2
20260510155504 63 89 2.0 9.0 0.00 0.00 0.00 37 1020.0
20260510155005 63 113 1.0 7.0 0.00 0.00 0.00 38 1020.1
20260510154505 63 117 2.0 7.0 0.00 0.00 0.00 36 1019.9
20260510153505 63 94 1.0 5.0 0.00 0.00 0.00 38 1020.1
20260510153005 63 84 2.0 5.0 0.00 0.00 0.00 39 1020.0
20260510152504 61 105 0.0 7.0 0.00 0.00 0.00 42 1019.8
20260510151505 60 108 2.0 12.0 0.00 0.00 0.00 42 1019.7
20260510151005 59 49 2.0 12.0 0.00 0.00 0.00 41 1019.7
20260510150505 59 69 3.0 9.0 0.00 0.00 0.00 41 1019.7
20260510150005 58 99 2.0 9.0 0.00 0.00 0.00 41 1019.7
20260510145504 58 84 3.0 9.0 0.00 0.00 0.00 40 1019.7
20260510145005 58 65 3.0 7.0 0.00 0.00 0.00 42 1019.7
20260510144505 58 89 2.0 6.0 0.00 0.00 0.00 42 1019.7
20260510144005 58 75 2.0 6.0 0.00 0.00 0.00 41 1019.7
20260510143005 58 57 2.0 7.0 0.00 0.00 0.00 42 1019.8
20260510142004 58 64 2.0 5.0 0.00 0.00 0.00 43 1019.8
20260510141505 58 51 1.0 5.0 0.00 0.00 0.00 43 1019.8
20260510141005 57 51 2.0 6.0 0.00 0.00 0.00 43 1019.8
20260510140504 57 74 2.0 6.0 0.00 0.00 0.00 42 1019.8
20260510140004 57 117 2.0 7.0 0.00 0.00 0.00 42 1019.7
20260510135504 57 46 2.0 7.0 0.00 0.00 0.00 43 1019.7
20260510135005 56 130 2.0 7.0 0.00 0.00 0.00 44 1019.7
20260510134505 56 77 2.0 7.0 0.00 0.00 0.00 44 1019.6
20260510134005 56 78 1.0 7.0 0.00 0.00 0.00 45 1019.6
20260510133504 56 78 2.0 7.0 0.00 0.00 0.00 44 1019.5
20260510133004 56 110 2.0 12.0 0.00 0.00 0.00 45 1019.5
20260510132504 56 109 5.0 12.0 0.00 0.00 0.00 43 1019.5
20260510132005 56 73 3.0 9.0 0.00 0.00 0.00 44 1019.4
20260510131505 56 60 2.0 9.0 0.00 0.00 0.00 45 1019.3
20260510131005 56 116 1.0 9.0 0.00 0.00 0.00 45 1019.3
20260510130505 56 76 1.0 9.0 0.00 0.00 0.00 45 1019.2
20260510130005 56 89 2.0 8.0 0.00 0.00 0.00 45 1019.2
20260510125507 56 51 2.0 8.0 0.00 0.00 0.00 45 1019.1
20260510124505 56 67 1.0 7.0 0.00 0.00 0.00 45 1018.8
20260510124004 56 63 3.0 7.0 0.00 0.00 0.00 47 1018.7
20260510123005 56 54 2.0 6.0 0.00 0.00 0.00 46 1018.3
20260510122505 56 76 1.0 8.0 0.00 0.00 0.00 46 1018.4
20260510122004 56 76 2.0 8.0 0.00 0.00 0.00 46 1018.2
20260510121505 56 41 3.0 7.0 0.00 0.00 0.00 46 1017.7
20260510121004 56 70 2.0 6.0 0.00 0.00 0.00 46 1017.6
20260510120505 56 58 1.0 10.0 0.00 0.00 0.00 47 1017.7
20260510120005 56 38 1.0 10.0 0.00 0.00 0.00 47 1017.6
20260510115004 56 63 2.0 10.0 0.00 0.00 0.00 46 1017.2
20260510114504 56 53 2.0 6.0 0.00 0.00 0.00 46 1017.1
20260510114005 56 119 1.0 12.0 0.00 0.00 0.00 46 1017.5
20260510113505 56 48 4.0 12.0 0.00 0.00 0.00 46 1017.3
20260510113005 56 27 2.0 8.0 0.00 0.00 0.00 46 1017.0
20260510112504 57 81 3.0 7.0 0.00 0.00 0.00 45 1016.9
20260510112004 57 60 3.0 10.0 0.00 0.00 0.00 45 1016.8
20260510111505 57 67 3.0 13.0 0.00 0.00 0.00 45 1016.7
20260510111005 57 104 4.0 13.0 0.00 0.00 0.00 45 1016.7
20260510110505 57 61 3.0 8.0 0.00 0.00 0.00 44 1016.7
20260510110005 57 65 3.0 8.0 0.00 0.00 0.00 44 1016.8
20260510105505 57 82 3.0 8.0 0.00 0.00 0.00 44 1016.7
20260510105005 57 59 2.0 7.0 0.00 0.00 0.00 44 1016.6
20260510104504 57 64 2.0 9.0 0.00 0.00 0.00 45 1016.4
20260510103504 58 34 2.0 9.0 0.00 0.00 0.00 46 1016.4
20260510103004 58 87 2.0 6.0 0.00 0.00 0.00 46 1016.4
20260510102504 58 40 2.0 6.0 0.00 0.00 0.00 47 1016.4
20260510102004 58 69 2.0 6.0 0.00 0.00 0.00 46 1016.2
20260510101504 58 67 2.0 6.0 0.00 0.00 0.00 46 1016.0
20260510101004 58 54 3.0 6.0 0.00 0.00 0.00 46 1015.9
20260510100004 59 51 3.0 10.0 0.00 0.00 0.00 45 1015.6
20260510095504 59 78 3.0 9.0 0.00 0.00 0.00 45 1015.7
20260510095004 59 128 2.0 9.0 0.00 0.00 0.00 44 1015.6
20260510094504 59 58 3.0 9.0 0.00 0.00 0.00 44 1015.6
20260510094004 59 43 2.0 9.0 0.00 0.00 0.00 45 1015.6
20260510093504 60 76 2.0 13.0 0.00 0.00 0.00 45 1015.6
20260510093005 60 128 2.0 13.0 0.00 0.00 0.00 45 1015.6
20260510092504 60 81 3.0 13.0 0.00 0.00 0.00 44 1015.4
20260510091504 60 84 3.0 9.0 0.00 0.01 0.00 45 1015.5
20260510091005 60 76 3.0 10.0 0.00 0.01 0.00 46 1015.2
20260510090505 61 64 4.0 10.0 0.00 0.01 0.00 46 1015.0
20260510090004 61 73 3.0 12.0 0.00 0.01 0.00 46 1014.9
20260510085504 61 85 4.0 12.0 0.00 0.01 0.00 47 1014.9
20260510085004 61 66 3.0 12.0 0.00 0.01 0.00 49 1014.9
20260510084504 61 93 2.0 7.0 0.00 0.01 0.00 51 1014.7
20260510084004 62 51 3.0 10.0 0.00 0.01 0.00 50 1014.6
20260510083504 62 61 2.0 10.0 0.00 0.01 0.00 51 1014.6
20260510083004 62 49 4.0 13.0 0.00 0.01 0.00 51 1014.7
20260510082505 62 59 3.0 13.0 0.00 0.01 0.00 52 1014.5
20260510082004 62 46 3.0 9.0 0.00 0.01 0.00 52 1014.5
20260510081504 62 60 3.0 9.0 0.00 0.01 0.00 52 1014.5
20260510081005 62 68 3.0 7.0 0.00 0.01 0.00 52 1014.1
20260510080505 63 30 2.0 6.0 0.00 0.01 0.00 53 1014.1
20260510075505 63 87 2.0 7.0 0.00 0.01 0.00 53 1014.2
20260510075004 63 66 2.0 6.0 0.00 0.01 0.00 53 1014.2
20260510074004 63 38 1.0 6.0 0.00 0.01 0.00 55 1013.9
20260510073004 63 120 0.0 2.0 0.00 0.01 0.00 57 1013.9
20260510072504 63 120 1.0 3.0 0.00 0.01 0.00 57 1013.8
20260510072004 63 120 0.0 3.0 0.00 0.01 0.00 56 1013.6
20260510071504 63 120 1.0 2.0 0.00 0.01 0.00 55 1013.5
20260510071004 63 120 0.0 1.0 0.00 0.01 0.00 55 1013.7
20260510070504 63 120 0.0 2.0 0.00 0.01 0.00 55 1013.6
20260510070004 64 121 1.0 3.0 0.00 0.01 0.00 54 1013.5
20260510065504 64 121 1.0 3.0 0.00 0.01 0.00 54 1013.4
20260510065004 64 121 1.0 3.0 0.00 0.01 0.00 53 1013.5
20260510064504 64 121 1.0 3.0 0.00 0.01 0.00 53 1013.4
20260510064005 64 123 1.0 2.0 0.00 0.01 0.00 52 1013.4
20260510063004 65 123 1.0 3.0 0.00 0.01 0.00 51 1013.2
20260510062004 66 121 1.0 6.0 0.00 0.01 0.00 50 1013.2
20260510061004 66 97 0.0 3.0 0.00 0.01 0.00 49 1013.4
20260510060504 66 97 1.0 3.0 0.00 0.01 0.00 49 1013.4
20260510060004 66 97 1.0 3.0 0.00 0.01 0.00 48 1013.4
20260510055504 66 101 1.0 3.0 0.00 0.01 0.00 48 1013.4
20260510055004 66 101 2.0 3.0 0.00 0.01 0.00 48 1013.3
20260510054504 66 56 2.0 3.0 0.00 0.01 0.00 48 1013.3
20260510054004 66 117 2.0 5.0 0.00 0.01 0.00 48 1013.3
20260510053504 67 119 0.0 5.0 0.00 0.01 0.00 48 1013.0
20260510053004 67 117 2.0 5.0 0.00 0.01 0.00 48 1013.0
20260510052504 67 115 1.0 2.0 0.00 0.01 0.00 48 1013.0
20260510052004 67 115 0.0 2.0 0.00 0.01 0.00 48 1013.1
20260510051504 67 115 0.0 6.0 0.00 0.01 0.00 47 1012.8
20260510051004 68 115 1.0 6.0 0.00 0.01 0.00 47 1012.8
20260510050504 68 132 1.0 6.0 0.00 0.01 0.00 48 1012.8
20260510050004 68 160 2.0 6.0 0.00 0.01 0.00 49 1012.6
20260510045504 68 108 2.0 7.0 0.00 0.01 0.01 50 1012.2
20260510045004 68 80 3.0 10.0 0.00 0.01 0.01 51 1011.8
20260510044504 68 89 2.0 10.0 0.00 0.01 0.01 51 1011.6
20260510044005 68 47 3.0 10.0 0.00 0.01 0.01 52 1011.3
20260510043504 69 84 2.0 5.0 0.00 0.01 0.01 52 1011.3
20260510043004 69 89 1.0 5.0 0.00 0.01 0.01 52 1011.2
20260510042505 69 77 2.0 5.0 0.00 0.01 0.01 51 1011.0
20260510042005 69 59 2.0 3.0 0.00 0.01 0.01 50 1010.9
20260510040504 69 62 2.0 5.0 0.00 0.01 0.01 50 1010.7
20260510040004 69 96 1.0 5.0 0.00 0.01 0.01 51 1010.7
20260510035504 69 72 1.0 5.0 0.00 0.01 0.01 51 1010.7
20260510035004 69 80 2.0 5.0 0.00 0.01 0.01 51 1010.7
20260510033505 69 76 0.0 2.0 0.00 0.01 0.01 52 1010.7
20260510033004 69 76 1.0 3.0 0.00 0.01 0.01 52 1010.8
20260510032505 69 76 1.0 3.0 0.00 0.01 0.01 51 1010.9
20260510032005 69 76 1.0 3.0 0.00 0.01 0.01 51 1010.8
20260510031504 69 76 2.0 5.0 0.00 0.01 0.01 51 1010.6
20260510031004 70 71 0.0 5.0 0.00 0.01 0.01 50 1010.4
20260510030504 69 82 1.0 3.0 0.00 0.01 0.01 50 1010.3
20260510030005 69 63 2.0 3.0 0.00 0.01 0.01 50 1010.5
20260510025504 70 63 1.0 3.0 0.00 0.01 0.01 50 1010.7
20260510025004 70 63 1.0 3.0 0.00 0.01 0.01 50 1010.7
20260510024504 70 63 1.0 2.0 0.00 0.01 0.01 49 1010.3
20260510024004 70 63 0.0 1.0 0.00 0.01 0.01 49 1010.2
20260510023004 70 63 0.0 2.0 0.00 0.01 0.01 48 1009.8
20260510022504 71 63 1.0 3.0 0.00 0.01 0.01 48 1009.6
20260510022004 71 63 1.0 3.0 0.00 0.01 0.01 48 1009.4
20260510021504 71 65 1.0 3.0 0.00 0.01 0.01 47 1009.5
20260510021004 71 65 1.0 2.0 0.00 0.01 0.01 47 1009.5
20260510020505 71 65 0.0 3.0 0.00 0.01 0.01 47 1009.3
20260510020005 71 65 1.0 3.0 0.00 0.01 0.01 46 1009.2
20260510015504 72 10 2.0 3.0 0.00 0.01 0.01 46 1009.2
20260510014004 72 69 1.0 10.0 0.00 0.01 0.01 45 1009.0
20260510013004 72 61 1.0 10.0 0.00 0.01 0.01 45 1008.8
20260510012504 72 67 2.0 5.0 0.00 0.01 0.01 45 1008.6
20260510011504 73 68 1.0 3.0 0.00 0.01 0.01 44 1008.5
20260510011004 73 67 1.0 5.0 0.00 0.01 0.01 44 1008.4
20260510010005 74 73 1.0 5.0 0.00 0.01 0.01 43 1008.4
20260510005505 74 74 1.0 12.0 0.00 0.01 0.01 42 1008.3
20260510005005 74 63 2.0 12.0 0.00 0.01 0.01 42 1008.2
20260510004505 75 358 1.0 7.0 0.00 0.01 0.01 41 1008.1
20260510004005 75 340 2.0 10.0 0.00 0.01 0.01 41 1008.1
20260510003505 76 38 3.0 10.0 0.00 0.01 0.01 41 1008.0
20260510002505 76 359 2.0 6.0 0.00 0.01 0.01 39 1007.7
20260510002005 77 45 3.0 6.0 0.00 0.01 0.01 39 1007.7
20260510001505 77 107 1.0 6.0 0.00 0.01 0.01 38 1007.6
20260510001005 77 348 2.0 6.0 0.00 0.01 0.01 38 1007.6
20260510000506 77 48 2.0 6.0 0.00 0.01 0.01 38 1007.6
20260510000005 78 335 2.0 7.0 0.00 0.01 0.01 38 1007.7
20260509235505 78 350 3.0 7.0 0.00 0.01 0.01 37 1007.6
20260509235006 78 325 2.0 7.0 0.00 0.01 0.01 37 1007.6
20260509234505 78 318 2.0 12.0 0.00 0.01 0.01 37 1007.5
20260509234005 79 317 5.0 12.0 0.00 0.01 0.01 34 1007.4
20260509233005 79 320 4.0 14.0 0.00 0.01 0.01 32 1007.0
20260509232005 80 310 6.0 14.0 0.00 0.01 0.01 32 1007.0
20260509231505 80 308 6.0 13.0 0.00 0.01 0.01 32 1006.9
20260509231005 80 300 5.0 13.0 0.00 0.01 0.01 32 1006.8